Regional Weather Roundup
Issued by NWS Jackson, KY

Home | Current Version | Previous Version | Text Only | Print | Product List | Glossary On
Versions: 1 2 3 4 5 6 7 8 9 10 11 12 13 14 15 16 17 18 19 20 21 22 23 24 25 26 27 28 29 30 31 32 33 34 35 36 37 38 39 40 41 42 43 44 45 46 47 48 49 50
000
ASUS43 KJKL 241210
RWRJKL

EAST KENTUCKY HOURLY WEATHER ROUNDUP
NATIONAL WEATHER SERVICE JACKSON KY
800 AM EDT SUN MAY 24 2015

NOTE: "FAIR" INDICATES FEW OR NO CLOUDS BELOW 12,000 FEET WITH
NO SIGNIFICANT WEATHER AND/OR OBSTRUCTIONS TO VISIBILITY.

* THESE REPORTS ARE NOT UNDER NWS QUALITY CONTROL AND MAY NOT
  REPORT WEATHER SUCH AS PRECIPITATION AND FOG.

KYZ079-080-083-085-087-088-110-112-115-119-120-241300
...EASTERN KENTUCKY...

CITY           SKY/WX    TMP DP  RH WIND       PRES   REMARKS
JACKSON        PTSUNNY   62  50  64 CALM      30.35R
6HR MIN TEMP:  58; 6HR MAX TEMP:  63;

LONDON         MOSUNNY   60  51  72 CALM      30.34R
6HR MIN TEMP:  54; 6HR MAX TEMP:  60;

SOMERSET*      MOSUNNY   59  54  82 CALM      30.34R
MONTICELLO*    MOSUNNY   63  52  67 SW5       30.34R
6HR MIN TEMP:  53; 6HR MAX TEMP:  63;

MIDDLESBORO*   MOSUNNY   55  53  93 CALM      30.38S
6HR MIN TEMP:  51; 6HR MAX TEMP:  55;

HARLAN APT*    SUNNY     54  54 100 E6        30.38S
HAZARD APT*    SUNNY     57  52  82 CALM      30.35S
BLACK MTN*       N/A     57  46  67 SW7         N/A
PIKEVILLE APT* SUNNY     61  48  63 SE3       30.36R
BIG SANDY*     SUNNY     62  52  70 S3        30.35R
6HR MIN TEMP:  54; 6HR MAX TEMP:  62;

MOREHEAD APT*  SUNNY     63  50  63 CALM      30.35R
$$

KYZ035-036-041-042-044-050-067-078-099-241300
...CENTRAL KENTUCKY...

CITY           SKY/WX    TMP DP  RH WIND       PRES   REMARKS
MT STERLING*   PTSUNNY   63  52  67 CALM      30.34R
FLEMING/MASON* SUNNY     63  54  72 CALM      30.33R
DANVILLE*      MOSUNNY   61  52  72 SW3       30.32S
RICHMOND*      MOSUNNY   64  50  59 S5        30.31S
LEXINGTON      MOSUNNY   65  52  62 S8        30.30R
6HR MIN TEMP:  60; 6HR MAX TEMP:  65;

FRANKFORT      MOSUNNY   63  52  67 SE6       30.28R
6HR MIN TEMP:  55; 6HR MAX TEMP:  63;

$$

KYZ091>093-OHZ055-061-077-WVZ005-015-034-035-042-241300
...SOUTHERN OHIO/WEST VIRGINIA...

CITY           SKY/WX    TMP DP  RH WIND       PRES   REMARKS
COVINGTON      MOSUNNY   65  51  60 S6        30.28S
COLUMBUS       MOSUNNY   60  50  69 CALM      30.32R
DAYTON         MOSUNNY   64  48  56 SE7       30.30S
WILMINGTON     SUNNY     63  46  54 SE5       30.30S
HUNTINGTON     SUNNY     55  52  89 CALM      30.33R
CHARLESTON     MOSUNNY   53  50  89 CALM      30.34S
PINEVILLE*     SUNNY     50  50 100 MISG      30.44S
BECKLEY        SUNNY     60  44  55 SE8       30.40S
BLUEFIELD      SUNNY     65  43  44 CALM      30.42R
$$

VAZ002-007-008-TNZ017-027-036-066-071-241300
...SOUTHWEST VIRGINIA/EAST TENNESSEE...

CITY           SKY/WX    TMP DP  RH WIND       PRES   REMARKS
WISE*          SUNNY     63  41  45 S6        30.42S
JONESVILLE*    SUNNY     57  50  77 CALM      30.40S
ABINGDON*      SUNNY     62  47  57 CALM      30.42R
BRISTOL        PTSUNNY   57  50  77 CALM      30.40R
KNOXVILLE      PTSUNNY   58  55  90 E6        30.35R
OAK RIDGE      MOSUNNY   59  54  83 CALM      30.38R
CROSSVILLE     SUNNY     61  52  72 VRB3      30.36R
NASHVILLE      CLOUDY    66  54  65 SE6       30.26R
$$

...KEY TO REMARKS...
VSB - VISIBILITY IN MILES
WCI - WIND CHILL INDEX
HX  - HEAT INDEX

$$


USA.gov is the U.S. government's official web portal to all federal, state and local government web resources and services.